Terug naar catalogus

USA 21

LostNavigatieHEO
NORAD 17506·PAYLOAD·🇺🇸 United States

Gelanceerd Feb 12, 1987 vanaf Vandenberg Space Force Base

Loading…

Volgende Passages (komende 24 uur)

TLE

VerouderdSource: Space-Track

Epoch: Feb 14, 2026, 03:28 UTC

1 17506U 87015A   26045.14445650 -.00000778  00000-0 -21159-2 0  9990
2 17506  62.9671 273.1681 7275603 278.0632  12.4511  2.01482512 42766

Volg USA 21 in realtime met AllMySat

Download on the App Store